Bear Creek@Ashland

Start Stop
DateFlow
CFS
Gauge
Feet
DateFlow
CFS
Gauge
Feet
10/20/2018 17:158-0.17
10/20/2018 16:158-0.17
10/20/2018 14:159-0.13
10/20/2018 12:1510-0.1
10/20/2018 10:159-0.13
10/20/2018 09:157-0.18
10/20/2018 08:155-0.24
10/20/2018 07:156-0.23
10/20/2018 06:155-0.24
10/20/2018 05:156-0.21
10/20/2018 04:157-0.2
10/20/2018 02:156-0.23
10/20/2018 00:157-0.18
10/19/2018 23:158-0.15
10/19/2018 22:158-0.15
10/19/2018 21:159-0.14
10/19/2018 20:158-0.15
10/19/2018 19:159-0.14
10/19/2018 18:158-0.16
10/19/2018 17:158-0.15
10/19/2018 16:159-0.14
10/19/2018 14:1512-0.07
10/19/2018 12:159-0.12
10/19/2018 10:159-0.13
10/19/2018 09:158-0.17
10/19/2018 08:156-0.23
10/19/2018 07:155-0.25
10/19/2018 06:15 -0.27
10/19/2018 05:15 -0.27
10/19/2018 04:155-0.26
10/19/2018 02:156-0.22
10/19/2018 00:157-0.19
10/18/2018 23:158-0.16
10/18/2018 22:159-0.13
10/18/2018 21:158-0.17
10/18/2018 20:158-0.15
10/18/2018 19:157-0.18
10/18/2018 18:15 -0.18
10/18/2018 17:15 -0.19
10/18/2018 16:157-0.19
10/18/2018 14:159-0.14
10/18/2018 12:159-0.12
10/18/2018 10:1511-0.08
10/18/2018 09:1510-0.1
10/18/2018 08:157-0.2
10/18/2018 07:155-0.25
10/18/2018 06:154-0.28
10/18/2018 05:15 -0.28
10/18/2018 04:154-0.3
10/18/2018 02:156-0.23
10/18/2018 00:157-0.18
10/17/2018 23:158-0.17
10/17/2018 22:15 -0.15
10/17/2018 20:15 -0.15
10/17/2018 19:15 -0.17
10/17/2018 18:158-0.17
10/17/2018 17:157-0.18
10/17/2018 16:157-0.18
10/17/2018 14:158-0.16
10/17/2018 12:159-0.12
10/17/2018 10:158-0.16
10/17/2018 09:15 -0.17
10/16/2018 12:158-0.17
10/16/2018 10:159-0.13
10/16/2018 09:158-0.17
10/16/2018 00:158 
10/15/2018 18:15 -0.17
10/15/2018 17:15 -0.16
10/15/2018 16:15 -0.16
10/15/2018 14:15 -0.17
10/15/2018 00:158 
10/14/2018 14:158-0.17
10/14/2018 12:159-0.14
10/14/2018 10:158-0.17
10/14/2018 00:15 -0.17
10/13/2018 23:15 -0.16
10/13/2018 22:15 -0.15
10/13/2018 21:15 -0.16
10/13/2018 20:15 -0.16
10/13/2018 19:15 -0.17
10/13/2018 16:158-0.17
10/13/2018 14:159-0.14
10/13/2018 12:159-0.12
10/13/2018 10:1510-0.11
10/13/2018 09:158-0.17
10/12/2018 21:15 -0.17
10/12/2018 20:15 -0.15
10/12/2018 19:15 -0.17
10/12/2018 17:15 -0.17
10/12/2018 16:15 -0.16
10/12/2018 14:158-0.17
10/12/2018 12:159-0.12
10/12/2018 10:154-0.12
10/12/2018 09:154-0.14
10/12/2018 08:153-0.17
10/11/2018 16:15 -0.17
10/11/2018 14:153-0.15
10/11/2018 12:154-0.12
10/11/2018 10:15 -0.11
10/11/2018 09:154-0.14
10/11/2018 08:153-0.17
10/11/2018 00:15 -0.17
10/10/2018 23:15 -0.16
10/10/2018 22:153-0.15
10/10/2018 21:154-0.14
10/10/2018 19:153-0.17
10/10/2018 14:153-0.17
10/10/2018 12:154-0.13
10/10/2018 10:155-0.1
10/10/2018 09:154-0.11
10/10/2018 08:153-0.17
10/10/2018 02:15 -0.17
10/10/2018 00:153-0.15
10/09/2018 23:154-0.12
10/09/2018 22:15 -0.12
10/09/2018 21:15 -0.11
10/09/2018 20:15 -0.12
10/09/2018 19:15 -0.13
10/09/2018 18:154-0.14
10/09/2018 17:153-0.15
10/09/2018 16:154-0.13
10/09/2018 14:154-0.13
10/09/2018 12:155-0.08
10/09/2018 10:15 -0.09
10/09/2018 09:155-0.08
10/09/2018 08:153-0.17
10/09/2018 04:15 -0.17
10/09/2018 02:153-0.15
10/09/2018 00:154-0.12
10/08/2018 23:15 -0.12
10/08/2018 22:15 -0.11
10/08/2018 21:15 -0.12
10/08/2018 20:15 -0.12
10/08/2018 19:15 -0.13
10/08/2018 18:15 -0.14
10/08/2018 17:15 -0.14
10/08/2018 16:15 -0.13
10/08/2018 14:154-0.12
10/08/2018 12:155-0.08
10/08/2018 10:156-0.06
10/08/2018 09:154-0.12
10/08/2018 08:153-0.17
10/08/2018 02:153-0.17
10/08/2018 00:154-0.14
10/07/2018 23:15 -0.12
10/07/2018 22:154-0.11
10/07/2018 21:155-0.09
10/07/2018 20:15 -0.1
10/07/2018 19:15 -0.1
10/07/2018 18:155-0.09
10/07/2018 17:154-0.12
10/07/2018 16:154-0.11
10/07/2018 14:155-0.07
10/07/2018 12:156-0.06
10/07/2018 10:156-0.06
10/07/2018 09:155-0.07
10/07/2018 08:154-0.14
10/07/2018 07:153-0.15
10/07/2018 06:15 -0.17
10/07/2018 05:153-0.16
10/07/2018 04:154-0.13
10/07/2018 02:154-0.13
10/07/2018 00:156-0.05
10/06/2018 23:156-0.04
10/06/2018 22:157-0.02
10/06/2018 21:157-0.01
10/06/2018 20:1580
10/06/2018 19:15 0.01
10/06/2018 18:15 0.02
10/06/2018 17:1580.02
10/06/2018 16:1590.03
10/06/2018 14:15 0.04
10/06/2018 12:1590.04
10/06/2018 10:157-0.02
10/06/2018 09:157-0.01
10/06/2018 08:156-0.06
10/06/2018 07:157-0.03
10/06/2018 06:156-0.06
10/06/2018 05:157-0.03
10/06/2018 04:1580.02
10/06/2018 02:15100.06
10/06/2018 00:15160.18
10/05/2018 23:15180.22
10/05/2018 22:15190.24
10/05/2018 21:15170.21
10/05/2018 20:15140.16
10/05/2018 19:15110.09
10/05/2018 18:1580
10/05/2018 17:155-0.1
10/05/2018 16:154-0.13
10/05/2018 14:154-0.14
10/05/2018 12:155-0.08
10/05/2018 10:155-0.09
10/05/2018 09:154-0.12
10/05/2018 08:153-0.17
10/05/2018 02:153-0.17
10/05/2018 00:154-0.12
10/04/2018 23:154-0.11
10/04/2018 22:155-0.08
10/04/2018 21:156-0.06
10/04/2018 20:155-0.09
10/04/2018 18:15 -0.09
10/04/2018 17:155-0.08
10/04/2018 16:156-0.06
10/04/2018 14:157-0.01
10/04/2018 12:1580.01
10/04/2018 10:15100.06
10/04/2018 09:15100.06
10/04/2018 08:1590.04
10/04/2018 07:1590.05
10/04/2018 06:15110.09
10/04/2018 05:15130.14
10/04/2018 04:15140.16
10/04/2018 02:15180.23
10/04/2018 00:15190.24
10/03/2018 23:15190.24
10/03/2018 22:15340.44
10/03/2018 21:1580.01
10/03/2018 20:157-0.03
10/03/2018 19:157-0.03
10/03/2018 18:155-0.1
10/03/2018 17:154-0.12
10/03/2018 16:15 -0.13
10/03/2018 14:15 -0.12
10/03/2018 12:154-0.11
10/03/2018 10:155-0.09
10/03/2018 09:154-0.12
10/03/2018 08:154-0.14
10/03/2018 07:153-0.17
10/03/2018 02:153-0.17
10/03/2018 00:154-0.14
10/02/2018 23:15 -0.12
10/02/2018 22:154-0.11
10/02/2018 21:155-0.08
10/02/2018 20:15 -0.07
10/02/2018 19:15 -0.1
10/02/2018 18:155-0.1
10/02/2018 17:154-0.12
10/02/2018 16:154-0.11
10/02/2018 14:156-0.06
10/02/2018 12:157-0.03
10/02/2018 10:15 -0.02
10/02/2018 09:157-0.02
10/02/2018 08:155-0.1
10/02/2018 07:153-0.15
10/02/2018 06:154-0.13
10/02/2018 05:154-0.12
10/02/2018 04:155-0.1
10/02/2018 02:156-0.05
10/02/2018 00:156-0.04
10/01/2018 23:157-0.01
10/01/2018 22:1580
10/01/2018 21:1590.03
10/01/2018 20:1580.02
10/01/2018 19:15 0.02
10/01/2018 18:15 0.01
10/01/2018 17:15 0
10/01/2018 16:1580
10/01/2018 14:157-0.01
10/01/2018 12:1590.03
10/01/2018 10:1580.02
10/01/2018 09:157-0.01
10/01/2018 08:155-0.07
10/01/2018 07:154-0.11
10/01/2018 06:155-0.1
10/01/2018 05:154-0.11
10/01/2018 04:154-0.11
10/01/2018 02:155-0.08
10/01/2018 00:157-0.02
09/30/2018 23:157-0.01
09/30/2018 22:1580.01
09/30/2018 21:15 0
09/30/2018 18:1580
09/30/2018 17:157-0.01
09/30/2018 16:1580
09/30/2018 14:15 0
09/30/2018 12:15 0.02
09/30/2018 10:15 0.01
09/30/2018 09:1580.01
09/30/2018 08:157-0.03
09/30/2018 07:156-0.04
09/30/2018 06:1580
09/30/2018 05:1580.01
09/30/2018 04:1590.04
09/30/2018 02:15140.15
09/30/2018 00:15180.23
09/29/2018 23:15230.3
09/29/2018 22:15250.33
09/29/2018 21:15270.36
09/29/2018 20:157-0.03
09/29/2018 19:155-0.09
09/29/2018 18:155-0.1
09/29/2018 17:154-0.11
09/29/2018 16:155-0.1
09/29/2018 14:15 -0.07
09/29/2018 12:15 -0.08
09/29/2018 10:155-0.07
09/29/2018 09:154-0.14
09/29/2018 08:153-0.17
09/29/2018 02:15 -0.17
09/29/2018 00:153-0.15
09/28/2018 23:154-0.12
09/28/2018 22:154-0.11
09/28/2018 21:155-0.09
09/28/2018 17:155-0.09
09/28/2018 16:154-0.11
09/28/2018 14:155-0.1
09/28/2018 12:155-0.09
09/28/2018 10:156-0.06
09/28/2018 09:156-0.06
09/28/2018 08:154-0.12
09/28/2018 07:153-0.17
09/28/2018 02:153-0.17
09/28/2018 00:154-0.11
09/27/2018 23:154-0.12
09/27/2018 22:155-0.1
09/27/2018 21:15 -0.08
09/27/2018 20:15 -0.09
09/27/2018 19:15 -0.1
09/27/2018 18:15 -0.09
09/27/2018 17:15 -0.09
09/27/2018 16:15 -0.08
09/27/2018 14:15 -0.09
09/27/2018 12:155-0.07
09/27/2018 10:156-0.06
09/27/2018 09:156-0.06
09/27/2018 08:155-0.1
09/27/2018 07:153-0.17
09/27/2018 04:15 -0.17
09/27/2018 02:153-0.15
09/27/2018 00:154-0.12
09/26/2018 23:155-0.1
09/26/2018 22:15 -0.07
09/26/2018 18:15 -0.07
09/26/2018 17:15 -0.09
09/26/2018 16:15 -0.1
09/26/2018 14:155-0.07
09/26/2018 12:156-0.06
09/26/2018 10:15 -0.05
09/26/2018 09:156-0.04
09/26/2018 08:154-0.13
09/26/2018 07:153-0.17
09/26/2018 04:153-0.17
09/26/2018 02:154-0.14
09/26/2018 00:155-0.1
09/25/2018 23:15 -0.08
09/25/2018 22:155-0.07
09/25/2018 21:156-0.06
09/25/2018 18:15 -0.06
09/25/2018 17:15 -0.04
09/25/2018 16:156-0.04
09/25/2018 14:157-0.02
09/25/2018 12:1580.01
09/25/2018 10:15 0.01
09/25/2018 09:1580.02
09/25/2018 08:156-0.06
09/25/2018 07:155-0.08
09/25/2018 06:15 -0.08
09/25/2018 05:15 -0.07
09/25/2018 04:155-0.08
09/25/2018 02:156-0.06
09/25/2018 00:157-0.02
09/24/2018 23:1580
09/24/2018 22:1590.03
09/24/2018 21:15100.07
09/24/2018 20:15100.07
09/24/2018 19:15110.08
09/24/2018 18:15120.1
09/24/2018 17:15130.13
09/24/2018 16:15140.16
09/24/2018 14:15160.19
09/24/2018 12:15110.21
09/24/2018 10:15130.26
09/24/2018 09:15110.21
09/24/2018 08:1590.17
09/24/2018 07:1590.15
09/24/2018 06:1580.14
09/24/2018 05:1590.15
09/24/2018 02:1590.15
09/24/2018 00:15100.18
09/23/2018 22:15 0.18
09/23/2018 21:15 0.19
09/23/2018 19:15100.19
09/23/2018 18:15110.2
09/23/2018 17:15100.19
09/23/2018 16:15110.2
09/23/2018 14:15120.22
09/23/2018 12:15 0.23

Start Stop